[[{"header":{"parameterUnit":"m.s-1","parameterCategory":1,"la1":30.2991,"la2":30.254,"lo1":-89.0895,"lo2":-89.0444,"dy":0.0017,"dx":0.0017,"nx":28,"ny":28,"refTime":"2024-05-22T03:00:00:Z","depth":0,"parameterNumber":2,"parameterNumberName":"U-component_of_WINDS"},"data":[0,0,0,0,0,0,0,0,0,0,0,0,0,0,0,0,0,0,0,0,0,0,0,0,0,0,0,0,0,0,0,0,0,0,0,0,0,0,0,0,0,0,0,0,0,0,0,0,0,0,0,0,0,0,0,0,0,0,-1.3361,-1.3361,0,-1.3358,-1.3358,-1.3358,-1.3345,-1.3345,-1.3345,-1.3345,-1.3342,-1.3342,-1.3342,0,0,0,0,0,0,0,0,0,0,0,0,0,-1.3357,-1.3357,-1.3361,-1.3361,-1.3361,-1.3358,-1.3358,-1.3358,-1.3345,-1.3345,-1.3345,-1.3344,-1.3342,-1.3342,-1.3342,0,0,0,0,0,0,0,0,0,0,0,0,0,-1.3357,-1.3357,-1.3361,-1.3354,-1.3354,-1.3358,-1.3358,-1.3358,-1.3346,-1.3345,-1.3345,-1.3344,-1.3342,-1.3342,-1.3342,-1.3353,0,0,-1.3343,-1.3343,0,0,0,0,0,0,0,0,-1.3357,-1.3357,-1.3355,-1.3355,-1.3354,-1.3352,-1.3355,-1.3356,-1.3346,-1.3349,-1.3345,-1.3344,-1.3346,-1.3345,-1.3346,-1.3353,-1.3352,-1.3343,-1.3343,-1.3344,-1.3344,0,0,0,0,0,0,0,-1.3357,-1.3357,-1.336,-1.3355,-1.3355,-1.3352,-1.3351,-1.3355,-1.335,-1.3348,-1.3347,-1.3347,-1.3345,-1.3346,-1.3346,-1.3352,-1.3343,-1.3344,-1.3344,-1.3344,-1.3368,-1.3368,0,0,0,0,0,0,-1.3358,-1.3357,-1.336,-1.336,-1.3354,-1.3352,-1.3352,-1.3353,-1.3349,-1.3349,-1.3348,-1.3347,-1.3345,-1.3345,-1.3346,-1.3358,-1.3344,-1.3344,-1.3344,-1.3367,-1.3368,-1.3368,0,0,0,0,0,0,-1.3357,-1.3358,-1.336,-1.3358,-1.3358,-1.3353,-1.3354,-1.3353,-1.3353,-1.3349,-1.3348,-1.3349,-1.3345,-1.3345,-1.3351,-1.3357,-1.3344,-1.3344,-1.3367,-1.3367,-1.3368,-1.3382,0,0,0,0,0,0,-1.3357,-1.3358,-1.3362,-1.3358,-1.3358,-1.3365,-1.3354,-1.3353,-1.3354,-1.3353,-1.335,-1.3349,-1.3345,-1.3351,-1.3351,-1.3357,-1.3344,-1.3366,-1.3367,-1.3368,-1.3381,-1.3383,-1.3384,0,0,0,0,0,-1.3357,-1.3366,-1.3362,-1.3362,-1.3363,-1.3366,-1.3366,-1.336,-1.3354,-1.3358,-1.3355,-1.3349,-1.3356,-1.3351,-1.3352,-1.3358,-1.3366,-1.3367,-1.3368,-1.338,-1.3382,-1.3384,0,0,0,0,0,0,-1.337,-1.3365,-1.3361,-1.3368,-1.3367,-1.3364,-1.3368,-1.3363,-1.3364,-1.3363,-1.3356,-1.3355,-1.3362,-1.3361,-1.3355,-1.3368,-1.336,-1.3361,-1.3369,-1.3371,-1.3373,-1.3373,-1.3345,0,0,0,0,0,-1.3374,-1.3377,-1.3372,-1.3379,-1.3379,-1.3374,-1.3375,-1.337,-1.3369,-1.3369,-1.3367,-1.3366,-1.3368,-1.337,-1.3371,-1.338,-1.338,-1.3385,-1.3387,-1.3389,-1.339,-1.3395,-1.3397,-1.3372,-1.3372,-1.3372,0,0,-1.3382,-1.3379,-1.3381,-1.3381,-1.338,-1.3383,-1.3373,-1.3377,-1.3379,-1.337,-1.3375,-1.3373,-1.3372,-1.338,-1.3383,-1.3379,-1.3396,-1.339,-1.3391,-1.3391,-1.3396,-1.3398,-1.34,-1.3372,-1.3372,-1.3372,0,0,-1.3397,-1.3395,-1.3401,-1.34,-1.3399,-1.3395,-1.3397,-1.3393,-1.3392,-1.3397,-1.339,-1.3393,-1.3396,-1.3396,-1.3396,-1.3412,-1.3406,-1.3413,-1.3423,-1.3428,-1.343,-1.3431,-1.3437,-1.3439,-1.3414,-1.3414,-1.3414,0,-1.3407,-1.3411,-1.3405,-1.3409,-1.3409,-1.3401,-1.3407,-1.3406,-1.3405,-1.3406,-1.3401,-1.3406,-1.3404,-1.3412,-1.3416,-1.3416,-1.3418,-1.3413,-1.343,-1.3431,-1.3433,-1.3438,-1.344,-1.3415,-1.3414,-1.3414,-1.3414,0,-1.3424,-1.3427,-1.3431,-1.3431,-1.3432,-1.3437,-1.3431,-1.3433,-1.3429,-1.3426,-1.3432,-1.343,-1.3431,-1.3432,-1.3428,-1.3439,-1.3437,-1.3431,-1.3423,-1.3436,-1.3441,-1.3443,-1.3416,-1.3415,-1.3415,-1.3415,0,0,-1.3448,-1.3443,-1.3445,-1.3444,-1.3442,-1.3444,-1.3449,-1.345,-1.3452,-1.3452,-1.3455,-1.3459,-1.3454,-1.3454,-1.345,-1.3454,-1.3467,-1.3448,-1.3448,-1.3451,-1.3479,-1.3483,-1.3486,-1.3463,-1.3463,-1.3464,-1.3479,0,-1.3463,-1.347,-1.3465,-1.3473,-1.3476,-1.3468,-1.3472,-1.3471,-1.3468,-1.3471,-1.3468,-1.347,-1.3463,-1.3463,-1.3467,-1.3464,-1.3472,-1.3463,-1.3467,-1.3467,-1.3467,-1.3488,-1.3493,-1.3508,-1.3481,-1.3481,-1.3481,0,-1.3481,-1.3482,-1.3491,-1.3488,-1.3489,-1.3492,-1.3493,-1.3495,-1.3494,-1.3492,-1.3492,-1.3487,-1.3491,-1.3483,-1.3489,-1.3483,-1.3485,-1.3484,-1.3484,-1.3484,-1.3475,-1.3489,-1.3512,-1.3514,-1.3484,-1.3484,-1.3484,0,-1.3498,-1.3501,-1.3507,-1.3506,-1.3503,-1.3506,-1.3505,-1.3503,-1.3504,-1.3504,-1.3505,-1.3506,-1.3507,-1.3508,-1.3503,-1.3498,-1.351,-1.3502,-1.3509,-1.3509,-1.3512,-1.3512,-1.3535,-1.3512,-1.3512,-1.3512,-1.3512,0,-1.3516,-1.3522,-1.3514,-1.3518,-1.3524,-1.3518,-1.3524,-1.3522,-1.3521,-1.3524,-1.3517,-1.352,-1.3513,-1.3516,-1.3512,-1.3518,-1.3518,-1.3517,-1.3516,-1.3518,-1.3518,-1.3518,-1.3517,-1.3513,-1.3513,-1.3513,-1.3513,0,-1.3536,-1.3531,-1.3537,-1.3533,-1.3532,-1.3537,-1.3534,-1.3537,-1.3534,-1.3538,-1.3539,-1.3534,-1.3536,-1.3531,-1.3534,-1.3531,-1.3539,-1.3537,-1.354,-1.3539,-1.3547,-1.3546,-1.3572,-1.3575,-1.3549,-1.355,-1.355,0,-1.3548,-1.3552,-1.3549,-1.355,-1.3549,-1.3552,-1.3553,-1.3546,-1.3548,-1.3547,-1.355,-1.3552,-1.3553,-1.3558,-1.3554,-1.3556,-1.3553,-1.3562,-1.3554,-1.3555,-1.3554,-1.3554,-1.3554,-1.3564,-1.3564,-1.3565,-1.3565,0,-1.357,-1.3567,-1.3569,-1.3569,-1.357,-1.3571,-1.357,-1.3572,-1.3565,-1.3567,-1.3569,-1.357,-1.3572,-1.3574,-1.3575,-1.3574,-1.3568,-1.3567,-1.3569,-1.3571,-1.3573,-1.3572,-1.3545,-1.3567,-1.3567,-1.3567,-1.3567,-1.3566,-1.3587,-1.359,-1.3588,-1.359,-1.3589,-1.3589,-1.3592,-1.3589,-1.359,-1.3591,-1.3587,-1.3591,-1.3589,-1.359,-1.3589,-1.3592,-1.3588,-1.359,-1.3591,-1.3592,-1.3593,-1.3572,-1.3592,-1.3592,-1.3592,-1.3592,-1.3591,0,-1.3608,-1.3607,-1.3608,-1.3608,-1.3609,-1.3604,-1.3603,-1.3605,-1.3607,-1.3606,-1.3608,-1.361,-1.3612,-1.3609,-1.361,-1.3613,-1.3611,-1.3614,-1.3614,-1.3614,-1.3596,-1.3595,-1.3616,-1.3616,-1.3616,-1.3616,-1.3616,-1.3616,-1.362,-1.3626,-1.3622,-1.3627,-1.3626,-1.3628,-1.3629,-1.3628,-1.3628,-1.3631,-1.3632,-1.363,-1.3628,-1.3629,-1.3631,-1.363,-1.3631,-1.3635,-1.3633,-1.3617,-1.3615,-1.3613,-1.3611,-1.3635,-1.3635,-1.365,-1.365,-1.365]},{"header":{"parameterUnit":"m.s-1","parameterCategory":1,"la1":30.2991,"la2":30.254,"lo1":-89.0895,"lo2":-89.0444,"dy":0.0017,"dx":0.0017,"nx":28,"ny":28,"refTime":"2024-05-22T03:00:00:Z","depth":0,"parameterNumber":3,"parameterNumberName":"V-component_of_WINDS"},"data":[0,0,0,0,0,0,0,0,0,0,0,0,0,0,0,0,0,0,0,0,0,0,0,0,0,0,0,0,0,0,0,0,0,0,0,0,0,0,0,0,0,0,0,0,0,0,0,0,0,0,0,0,0,0,0,0,0,0,5.4322,5.4322,0,5.4325,5.4325,5.4325,5.4242,5.424,5.4238,5.4235,5.4237,5.4239,5.4242,0,0,0,0,0,0,0,0,0,0,0,0,0,5.4242,5.4244,5.4322,5.4322,5.4322,5.4325,5.4325,5.4325,5.4242,5.424,5.4237,5.4234,5.4237,5.4239,5.4242,0,0,0,0,0,0,0,0,0,0,0,0,0,5.4264,5.4245,5.4322,5.4281,5.4277,5.4325,5.4325,5.4325,5.4243,5.424,5.4236,5.4233,5.4236,5.4239,5.4242,5.4328,0,0,5.4252,5.4253,0,0,0,0,0,0,0,0,5.4263,5.4267,5.4287,5.4284,5.428,5.428,5.4297,5.4326,5.4244,5.4256,5.4235,5.4232,5.4254,5.4256,5.4263,5.4328,5.4328,5.4252,5.4254,5.4255,5.4256,0,0,0,0,0,0,0,5.4262,5.4267,5.4323,5.4287,5.4283,5.4262,5.4261,5.4302,5.4274,5.4255,5.4249,5.425,5.4251,5.4261,5.4263,5.4328,5.4252,5.4255,5.4257,5.4258,5.4463,5.4467,0,0,0,0,0,0,5.4266,5.4266,5.4323,5.4323,5.4263,5.4266,5.4265,5.4283,5.4273,5.4268,5.4253,5.4246,5.4257,5.4259,5.4263,5.4362,5.4255,5.4258,5.426,5.446,5.4464,5.4468,0,0,0,0,0,0,5.4264,5.4272,5.4322,5.4293,5.4298,5.4271,5.4291,5.4285,5.4294,5.4272,5.4266,5.4268,5.4254,5.4258,5.4312,5.4361,5.426,5.4263,5.4456,5.4461,5.4466,5.4562,0,0,0,0,0,0,5.4263,5.4272,5.4305,5.4294,5.43,5.4373,5.4294,5.4287,5.43,5.4291,5.4284,5.428,5.4252,5.4308,5.4316,5.4364,5.4265,5.4451,5.4458,5.4464,5.4555,5.457,5.4584,0,0,0,0,0,5.426,5.4331,5.4307,5.4314,5.434,5.4376,5.4379,5.4346,5.4304,5.4336,5.4322,5.428,5.4355,5.4314,5.4322,5.4372,5.4448,5.4456,5.4464,5.4548,5.4567,5.4583,0,0,0,0,0,0,5.4348,5.4329,5.4302,5.4372,5.4376,5.4362,5.4402,5.4367,5.4383,5.4375,5.4333,5.4332,5.4393,5.4388,5.4343,5.4454,5.4394,5.4404,5.4455,5.4473,5.4487,5.4487,5.4268,0,0,0,0,0,5.4375,5.4407,5.4389,5.4452,5.4456,5.4429,5.4443,5.4418,5.442,5.4421,5.4411,5.4415,5.4439,5.4456,5.4477,5.4554,5.4551,5.4592,5.4606,5.4618,5.4627,5.4667,5.4685,5.4494,5.4494,5.4494,0,0,5.4432,5.4426,5.4448,5.447,5.447,5.4503,5.4431,5.4469,5.4492,5.4427,5.4477,5.447,5.4472,5.4538,5.4566,5.4535,5.4679,5.4628,5.4638,5.464,5.4677,5.4695,5.4711,5.45,5.4499,5.4498,0,0,5.4553,5.4552,5.4604,5.4606,5.4608,5.459,5.4602,5.4594,5.4586,5.4637,5.4588,5.4616,5.4659,5.4661,5.4668,5.4791,5.4752,5.4799,5.4874,5.4913,5.4928,5.4941,5.4984,5.5,5.4808,5.4808,5.4808,0,5.4624,5.4671,5.4636,5.4677,5.4687,5.463,5.4683,5.4686,5.4695,5.4703,5.4669,5.4721,5.4718,5.4783,5.4813,5.4821,5.4834,5.4799,5.4929,5.4942,5.4954,5.4994,5.501,5.4813,5.4813,5.4812,5.4812,0,5.4758,5.4792,5.4834,5.4844,5.4859,5.4906,5.4877,5.4897,5.487,5.4855,5.4907,5.4901,5.492,5.4934,5.4908,5.4996,5.4976,5.4937,5.4875,5.4978,5.5015,5.5031,5.4822,5.4819,5.4818,5.4816,0,0,5.4933,5.4923,5.4939,5.4943,5.4941,5.4966,5.501,5.5029,5.5046,5.5054,5.5089,5.5127,5.509,5.5098,5.5072,5.5107,5.5203,5.5062,5.5061,5.5088,5.5299,5.5329,5.5347,5.5178,5.5181,5.5183,5.5299,0,5.505,5.5125,5.5094,5.5171,5.5202,5.5148,5.5186,5.5189,5.5176,5.52,5.5186,5.5213,5.5162,5.5167,5.5199,5.5185,5.5245,5.5176,5.521,5.5211,5.521,5.5367,5.5399,5.5508,5.5313,5.5316,5.5317,0,5.5196,5.521,5.5291,5.5283,5.5294,5.5329,5.5344,5.5368,5.5369,5.5357,5.5367,5.5333,5.5375,5.5315,5.5372,5.5325,5.5337,5.5333,5.5336,5.5337,5.527,5.5372,5.5542,5.5559,5.534,5.5338,5.5337,0,5.5315,5.5354,5.5407,5.5412,5.5405,5.543,5.5428,5.5427,5.544,5.5453,5.5461,5.5478,5.5488,5.5502,5.5474,5.5432,5.5535,5.5472,5.5526,5.5527,5.5549,5.5548,5.5723,5.5558,5.5558,5.5558,5.5557,0,5.5448,5.5499,5.5461,5.5493,5.5549,5.5513,5.5569,5.5561,5.556,5.559,5.5545,5.5574,5.5535,5.556,5.5538,5.5588,5.5593,5.5584,5.5578,5.5588,5.5589,5.5595,5.5586,5.5562,5.5561,5.556,5.5559,0,5.559,5.5566,5.5621,5.5609,5.5608,5.5649,5.5639,5.5668,5.5653,5.5691,5.5698,5.5673,5.57,5.5674,5.5699,5.5684,5.5752,5.5734,5.5751,5.5746,5.5802,5.5797,5.5986,5.6009,5.583,5.5832,5.5833,0,5.5676,5.5714,5.5707,5.5724,5.5725,5.5753,5.5766,5.5732,5.5748,5.5753,5.5782,5.5805,5.5822,5.5868,5.5852,5.5871,5.5853,5.5918,5.5856,5.5865,5.5854,5.5851,5.5855,5.5931,5.5933,5.5935,5.5936,0,5.5831,5.5818,5.5839,5.5857,5.5874,5.5886,5.5895,5.5911,5.5876,5.5896,5.5923,5.5936,5.5962,5.5986,5.6,5.5997,5.5961,5.5956,5.597,5.598,5.5988,5.5984,5.5785,5.5952,5.595,5.5949,5.5948,5.5948,5.5948,5.5979,5.5979,5.6004,5.6007,5.6016,5.6043,5.6031,5.6053,5.6072,5.6051,5.6084,5.6084,5.61,5.6102,5.6127,5.6099,5.6119,5.6124,5.6129,5.6137,5.5985,5.613,5.6129,5.6129,5.6128,5.6128,0,5.61,5.6097,5.6121,5.6134,5.6154,5.6119,5.6126,5.6145,5.6175,5.6179,5.6196,5.6228,5.625,5.6237,5.6256,5.6279,5.6263,5.6285,5.6283,5.6283,5.6161,5.6147,5.6298,5.6298,5.6298,5.6298,5.6298,5.6298,5.6182,5.6233,5.6219,5.6271,5.6268,5.63,5.6308,5.6316,5.6318,5.6355,5.6374,5.6365,5.6362,5.6381,5.64,5.6395,5.6404,5.6433,5.6422,5.6308,5.6291,5.6275,5.6262,5.6435,5.6435,5.6542,5.6543,5.6543]}]]